This is the latest recevied weather packets stored in our database for station/object 4S6DRJ-13. If no packets are shown the sender has not sent any weather packets the latest 10 day(s).
| Time | Temp. | Humidity | Pressure | Rain* | Wind** | Luminosity | Snow |
|---|---|---|---|---|---|---|---|
| 1787657416 | 28.33° C | 81% | 1009.4 hPa | 0 mm | 0.89 m/s, 169° | 70 W/m² | - |
| 1787657355 | 28.33° C | 81% | 1009.3 hPa | 0 mm | 1.34 m/s, 229° | 69 W/m² | - |
| 1787657293 | 28.33° C | 81% | 1009.3 hPa | 0 mm | 0.89 m/s, 185° | 71 W/m² | - |
| 1787657235 | 28.33° C | 81% | 1009.3 hPa | 0 mm | 0.89 m/s, 212° | 75 W/m² | - |
| 1787657172 | 28.33° C | 80% | 1009.4 hPa | 0 mm | 0.89 m/s, 84° | 78 W/m² | - |
| 1787657110 | 28.33° C | 80% | 1009.4 hPa | 0 mm | 2.24 m/s, 229° | 83 W/m² | - |
| 1787657050 | 28.33° C | 80% | 1009.3 hPa | 0 mm | 0.89 m/s, 292° | 88 W/m² | - |
| 1787656988 | 28.33° C | 80% | 1009.2 hPa | 0 mm | 0.89 m/s, 236° | 92 W/m² | - |
| 1787656928 | 28.33° C | 80% | 1009.3 hPa | 0 mm | 1.34 m/s, 226° | 96 W/m² | - |
| 1787656867 | 28.33° C | 80% | 1009.3 hPa | 0 mm | 0.89 m/s, 301° | 97 W/m² | - |
| 1787656806 | 28.33° C | 80% | 1009.3 hPa | 0 mm | 0.89 m/s, 237° | 97 W/m² | - |
| 1787656745 | 28.33° C | 80% | 1009.3 hPa | 0 mm | 0.89 m/s, 293° | 97 W/m² | - |
| 1787656684 | 28.33° C | 80% | 1009.3 hPa | 0 mm | 0.45 m/s, 196° | 95 W/m² | - |
| 1787656623 | 28.33° C | 80% | 1009.2 hPa | 0 mm | 0.45 m/s, 11° | 94 W/m² | - |
| 1787656562 | 28.33° C | 80% | 1009.3 hPa | 0 mm | 1.79 m/s, 332° | 91 W/m² | - |
| 1787656501 | 28.33° C | 80% | 1009.2 hPa | 0 mm | 2.24 m/s, 307° | 85 W/m² | - |
| 1787656440 | 28.33° C | 80% | 1009.2 hPa | 0 mm | 1.34 m/s, 153° | 91 W/m² | - |
| 1787656379 | 28.33° C | 80% | 1009.2 hPa | 0 mm | 0.89 m/s, 155° | 91 W/m² | - |
| 1787656318 | 28.33° C | 80% | 1009.1 hPa | 0 mm | 0.89 m/s, 159° | 91 W/m² | - |
| 1787656257 | 28.33° C | 80% | 1009.2 hPa | 0 mm | 0 m/s | 90 W/m² | - |
| 1787656196 | 28.33° C | 80% | 1009.1 hPa | 0 mm | 0.89 m/s, 103° | 91 W/m² | - |
| 1787656136 | 28.33° C | 80% | 1009.1 hPa | 0 mm | 0.89 m/s, 281° | 91 W/m² | - |
| 1787656074 | 28.33° C | 80% | 1009.1 hPa | 0 mm | 0.89 m/s, 196° | 90 W/m² | - |
| 1787656013 | 28.33° C | 80% | 1009 hPa | 0 mm | 0.89 m/s, 233° | 90 W/m² | - |
| 1787655952 | 28.33° C | 80% | 1009 hPa | 0 mm | 1.34 m/s, 225° | 90 W/m² | - |
* Rain latest hour (hover to see other rain measurements)
** Current wind speed in m/s (hover to see current wind gust speed)